Miscellaneous Local Product
Issued by NWS North Platte, NE

Current Version | Previous Version | Text Only | Print | Product List | Glossary On
Versions: 1 2 3 4 5 6 7 8 9 10 11 12 13 14 15 16 17 18 19 20 21 22 23 24 25 26 27 28 29 30 31 32 33 34 35 36 37 38 39 40 41 42 43 44 45 46 47 48 49 50
000
AXUS43 KLBF 060410
MISLBF


WESTERN AND NORTH CENTRAL NEBRASKA HOURLY WEATHER ROUNDUP
NATIONAL WEATHER SERVICE NORTH PLATTE NE
1100 PM CDT WED OCT 05 2022

NOTE: "FAIR" INDICATES FEW OR NO CLOUDS BELOW 12,000 FEET WITH NO
SIGNIFICANT WEATHER AND/OR OBSTRUCTIONS TO VISIBILITY.

NOTE: STATIONS NOT REPORTING SKY/WEATHER AND PRESSURE ARE
PROVIDED BY RAWS AND APRS NETWORKS AND ARE NOT UNDER NATIONAL
WEATHER SERVICE QUALITY CONTROL.

...OBSERVATIONS IN AND NEAR THE EASTERN PANHANDLE OF NEBRASKA...

CITY           SKY/WX    TMP DP  RH WIND       PRES   REMARKS
PINE RIDGE     CLEAR     46  43  89 E3        30.26R
GORDON         CLEAR     45  39  79 W5        30.27R
CHADRON        CLEAR     49  43  80 W7        30.27R
ALLIANCE       CLEAR     47  42  83 W6        30.28S
GURLEY         FAIR      46  38  72 W5        30.28R
SIDNEY         CLEAR     43  37  79 CALM      30.30R
LODGEPOLE      FAIR      49  40  69 CALM      30.29R
CRESCENT LAKE    N/A     55  47  74 N5          N/A
$$

...OBSERVATIONS IN NORTHERN NEBRASKA AND FAR SOUTHERN SOUTH DAKOTA...

CITY           SKY/WX    TMP DP  RH WIND       PRES   REMARKS
WINNER         CLEAR     57  48  72 SW7       30.15S
VALENTINE      CLEAR     48  44  86 SW7       30.20S
AINSWORTH      CLEAR     54  46  74 W5        30.20S
O`NEILL        CLEAR     56  47  72 W3        30.17S
THEDFORD       CLEAR     49  44  81 W5        30.24R
BROKEN BOW     CLEAR     47  42  83 CALM      30.20R
ORD            CLEAR     50  47  89 CALM      30.17R
ALBION         CLEAR     52  49  91 NW3       30.16R
EWING            N/A     53  48  84 CALM        N/A
CHAMBERS         N/A     51  47  85 CALM        N/A
BUTTE            N/A     58  49  72 SW3         N/A
SPRINGVIEW       N/A     50  47  90 CALM        N/A
VALENTINE NWR    N/A     50  45  84 CALM        N/A
$$

...OBSERVATIONS IN SOUTHWEST NEBRASKA AND FAR NORTHEAST COLORADO...

CITY           SKY/WX    TMP DP  RH WIND       PRES   REMARKS
WRAY           FAIR      50  37  62 W7        30.29R
HOLYOKE        CLEAR     52  41  66 NW3       30.29R
IMPERIAL       CLEAR     55  42  61 NW5       30.26R
GRANT          FAIR      50  41  71 W6        30.26S
OGALLALA       CLEAR     50  44  79 W3        30.27R
NORTH PLATTE   CLEAR     51  46  83 CALM      30.24R
MCCOOK         CLEAR     54  45  71 W5        30.22R
LEXINGTON      CLEAR     50  47  91 W6        30.21R
CALLAWAY         N/A     52  46  80 NW5         N/A
STAPLETON        N/A     54  45  71 CALM        N/A
$$

...OBSERVATIONS IN CENTRAL LINCOLN COUNTY AREA...

CITY           SKY/WX    TMP DP  RH WIND       PRES   REMARKS
N.P. AIRPORT   CLEAR     51  46  83 CALM      30.24R
N.P. HILLCREST   N/A     58  46  65 NE7         N/A
N.P. DOWNTOWN    N/A     55  46  73 CALM        N/A
$$

...OBSERVATIONS ACROSS THE ROCKIES AND WESTERN HIGH PLAINS...

CITY           SKY/WX    TMP DP  RH WIND       PRES   REMARKS
SCOTTSBLUFF    CLEAR     51  42  71 MISG      30.30R
KIMBALL        CLEAR     48  41  76 CALM      30.34S
CHEYENNE       CLEAR     45  33  63 W7        30.39R
DENVER         PTCLDY    49  39  68 S12       30.36R
STEAMBOAT      FAIR      48  33  57 NW3       30.37R
COPPER MTN     MOCLDY    39  32  75 CALM      30.64R
LEADVILLE      CLOUDY    37  37 100 CALM      30.55R
ASPEN          PTCLDY    46  36  68 SW7       30.40R
GUNNISON       CLOUDY    50  39  66 N5        30.43R
TELLURIDE      PTCLDY    41  37  87 CALM      30.50R
LARAMIE        CLEAR     42  30  62 S9        30.42R
CASPER         CLEAR     46  32  58 NE6       30.33R
GILLETTE       PTCLDY    47  37  68 S7        30.29R
SHERIDAN       CLEAR     48  41  76 S6        30.27S
JACKSON        CLEAR     47  37  68 NE9       30.37R
$$

...OBSERVATIONS ACROSS THE NORTHERN PLAINS...

CITY           SKY/WX    TMP DP  RH WIND       PRES   REMARKS
RAPID CITY     PTCLDY    55  44  66 W7        30.24R
PIERRE         MOCLDY    60  51  72 NW9       30.12R
SIOUX FALLS    CLEAR     56  52  86 CALM      30.09S
ABERDEEN       PTCLDY    63  51  65 NE15G25   30.11R
WILLISTON      MOCLDY    48  43  81 NE12G18   30.36R
DICKINSON      CLEAR     50  43  77 NE17      30.28R
BISMARCK       CLOUDY    51  44  77 NE20G28   30.28R
FARGO          CLEAR     51  42  71 N29G40    30.16R
GRAND FORKS    MOCLDY    45  35  68 N26G37    30.23R
$$

...OBSERVATIONS ACROSS THE CENTRAL AND SOUTHERN PLAINS...

CITY           SKY/WX    TMP DP  RH WIND       PRES   REMARKS
GRAND ISLAND   CLEAR     55  48  77 W6        30.17R
LINCOLN        CLEAR     55  49  80 CALM      30.14R
OMAHA          CLEAR     57  52  83 NW5       30.10S
DES MOINES     CLEAR     58  54  86 CALM      30.06S
KANSAS CITY    CLEAR     63  49  60 W7        30.09S
WICHITA        CLEAR     58  48  69 CALM      30.15S
DODGE CITY     CLEAR     58  45  62 CALM      30.23R
OKLAHOMA CITY  MOCLDY    71  49  45 NE8       30.14R
DALLAS         PTCLDY    74  50  42 SE6       30.11R
AMARILLO       CLOUDY    58  55  90 W3        30.26R
$$



USA.gov is the U.S. government's official web portal to all federal, state and local government web resources and services.